Weather in Kamenka

Russia / Nizhny Novgorod Oblast'     56°11′02″N   45°34′44″E
temp.,
°C
wind,
m/s
gust,
m/s
humid.,
%
clouds,
%
prec.,
mm/h
press.,
hPa
HPBL,
m
12 april, mon
mon1200:000se1199100 0.0 103512
03:00+1nne1299100 0.0 103651
06:00+2e2699100 0.0 1037169
09:00+4ene3698100 0.0 1038246
12:00+7e4693100 0.0 1038376
15:00+10e4883100 0.0 1037577
18:00+8e3995100 0.0 1037403
21:00+5e31295100 0.0 1037351
13 april, tue
tue1300:00+4ese3109495 0.0 1036257
03:00+4ese2998100 0.0 1035188
06:00+5se299869 0.0 1034182
09:00+11sse478381 0.0 1033303
12:00+15s486773 0.0 1032578
15:00+17s485471 0.0 10311067
18:00+13sse266889 0.0 1030108
21:00+9s37767 0.0 1030112
14 april, wed
wed1400:00+8s367830 0.0 102993
03:00+6sse227869 0.0 102928
06:00+6sse247691 0.0 102971
09:00+12sse365435 0.0 1028330
12:00+16sse46395 0.0 1027851
15:00+17sse46360 0.0 10251111
18:00+14sse26574 0.0 1023117
21:00+10sse28765 0.0 1024130
15 april, thu
thu1500:00+8sse24875 0.0 102360
03:00+7s22875 0.0 102213
06:00+7s11820 0.0 102212
09:00+14s23575 0.0 1021366
12:00+17s23435 0.0 10201294
15:00+18ssw223847 0.0 10191721
18:00+15ssw115025 0.0 101911
21:00+12wsw1159100 0.0 101910
16 april, fri
fri1600:00+10wnw1164100 0.0 101810
03:00+8n227176 0.0 101925
06:00+7nne378561 0.0 1020170
09:00+11ne467157 0.0 1020592
12:00+14ne565740 0.0 10211127
15:00+11ne676676 0.0 1023888
18:00+9ene386622 0.0 10241042
21:00+6ne412585 0.0 1026526